Location: Unspecified
(49.8670°N, 0.0000°E)
Time: 17:31:46
(UTC+00:00)

deb Explorer IX - All Passes

Search period start: 25 June 2019 00:00
Search period end: 05 July 2019 00:00
Orbit: 536 x 1115 km, 38.8° (Epoch: 24 June)

Date Brightness Start Highest point End Pass type
(mag) Time Alt. Az. Time Alt. Az. Time Alt. Az.
25 Jun - 12:16:44 10° SSW 12:21:46 22° SSE 12:27:02 10° ESE daylight
25 Jun - 14:01:50 10° SW 14:08:05 33° S 14:14:32 10° ESE daylight
25 Jun - 15:48:22 10° WSW 15:54:40 31° SSW 16:00:53 10° SE daylight
25 Jun - 17:36:16 10° WSW 17:40:53 18° SSW 17:45:23 10° S daylight
26 Jun - 11:54:52 10° SSW 11:59:47 22° SSE 12:05:01 10° ESE daylight
26 Jun - 13:39:55 10° SW 13:46:06 33° S 13:52:33 10° ESE daylight
26 Jun - 15:26:27 10° WSW 15:32:41 31° SSW 15:38:56 10° SE daylight
26 Jun - 17:14:18 10° WSW 17:18:54 18° SSW 17:23:26 10° S daylight
27 Jun - 11:33:01 10° SSW 11:37:50 21° SSE 11:42:58 10° ESE daylight
27 Jun - 13:18:03 10° SW 13:24:07 33° S 13:30:32 10° ESE daylight
27 Jun - 15:04:31 10° WSW 15:10:41 31° SSW 15:16:57 10° SE daylight
27 Jun - 16:52:21 10° WSW 16:56:56 18° SSW 17:01:27 10° S daylight
28 Jun - 11:11:12 10° SSW 11:15:52 21° SSE 11:20:55 10° ESE daylight
28 Jun - 12:56:11 10° SW 13:02:08 33° S 13:08:29 10° ESE daylight
28 Jun - 14:42:37 10° WSW 14:48:41 31° SSW 14:54:57 10° SE daylight
28 Jun - 16:30:25 10° WSW 16:34:56 17° SSW 16:39:26 10° S daylight
29 Jun - 10:49:23 10° SSW 10:53:55 21° SSE 10:58:50 10° ESE daylight
29 Jun - 12:34:21 10° SW 12:40:09 32° S 12:46:27 10° ESE daylight
29 Jun - 14:20:43 10° WSW 14:26:41 30° SSW 14:32:55 10° SE daylight
29 Jun - 16:08:31 10° WSW 16:12:57 17° SSW 16:17:24 10° S daylight
30 Jun - 10:27:36 10° SSW 10:31:59 20° SSE 10:36:46 10° ESE daylight
30 Jun - 12:12:31 10° SW 12:18:11 32° S 12:24:23 10° ESE daylight
30 Jun - 13:58:51 10° WSW 14:04:41 30° SSW 14:10:51 10° SE daylight
30 Jun - 15:46:38 10° WSW 15:50:57 17° SSW 15:55:19 10° S daylight
01 Jul - 10:05:50 10° SSW 10:10:03 20° SSE 10:14:41 10° ESE daylight
01 Jul - 11:50:42 10° SW 11:56:13 31° S 12:02:18 10° ESE daylight
01 Jul - 13:37:01 10° WSW 13:42:42 29° SSW 13:48:47 10° SE daylight
01 Jul - 15:24:47 10° WSW 15:28:57 16° SSW 15:33:12 10° S daylight
02 Jul - 09:44:04 10° SSW 09:48:07 20° SSE 09:52:35 10° ESE daylight
02 Jul - 11:28:55 10° SW 11:34:15 31° S 11:40:13 10° ESE daylight
02 Jul - 13:15:10 10° WSW 13:20:43 28° SSW 13:26:42 10° SE daylight
02 Jul - 15:02:57 10° WSW 15:06:57 16° SSW 15:11:04 10° S daylight
03 Jul - 09:22:20 10° SSW 09:26:12 19° SSE 09:30:29 10° ESE daylight
03 Jul - 11:07:08 10° SW 11:12:18 30° S 11:18:07 10° ESE daylight
03 Jul - 12:53:21 10° WSW 12:58:44 28° SSW 13:04:35 10° SE daylight
03 Jul - 14:41:10 10° WSW 14:44:58 15° SSW 14:48:53 10° S daylight
04 Jul - 09:00:36 10° SSW 09:04:18 18° SSE 09:08:22 10° ESE daylight
04 Jul - 10:45:22 10° SW 10:50:22 29° S 10:56:01 10° ESE daylight
04 Jul - 12:31:34 10° WSW 12:36:45 27° SSW 12:42:28 10° SE daylight
04 Jul - 14:19:24 10° WSW 14:22:58 15° SSW 14:26:41 10° S daylight
